STARLINK-30088 (57462 NORAD) Tracking and Keplerian Element Data

This shows tracking and keplerian element data for the satellite.

Feedback or suggestion? Click here.




ElementValue
Catalog57462
NameSTARLINK-30088
Epoch Orbit2675
Epoch Day12.86660575
Epoch Year2024
RAAN294.4374
Inclination43.0029
Eccentricity0.0001491
Argument of Perigee260.9483
Mean Anonmoly99.1191
Mean Motion15.02535426
Decay Rate6.03E-06
L11 57462U 23107F 24012.86660575 .00000603 00000+0 59714-4 0 9997
L22 57462 43.0029 294.4374 0001491 260.9483 99.1191 15.02535426 26757



Live tracking and technical data element details for STARLINK-30088 (NORAD 57462). STARLINK-30088 can be tracked NOW for your location showing map with azimuth and elevation plus other details from your city location.







IsCatalogInMostPopularTable: catalog: 57462, numindb: 6
Update: records affected: 1



GetName: 57462 STARLINK-30088

Hit Count: updated at: Thu, 22 Feb 2024 01:26:19 GMT